COSMOS 2181

Satellite information

Favourite Embed

Satellite Type and Status

PAYLOADIN ORBIT

Key statistics

Satellite COSMOS 2181 at a glance.

Uptime

12332

Days in orbit

Revolutions

≈ 13.7

Per day

Orbit

LEO

Low Earth Orbit

Inclination

82.9

Latest

Satellite identification and parameters

Extended collection of information and parameters for COSMOS 2181.

Object identification

Identified? True

Debris? False

Object name: COSMOS 2181

International designator: 1992-012A

Object number (NORAD): 21902

Object ID (CCSDS): 21902

Country: COMMONWEALTH OF INDEPENDENT STATES (CIS)

Current information (Y/N): Y

RCS size: LARGE

Orbital parameters

Period: 104.914 minutes

Inclination: 82.9438 deg

SMA: 7368.545 km

Apoapsis: 1010.618 km

Periapsis: 970.201 km

RAAN: 85.8381 deg

Eccentricy: 0.00274251

Argument of periapsis: 237.3071 deg

Mean anomaly: 181.294 deg

Mean motion: 13.72556345 rev/day

Mean motion (dot): 0.00000082 rev/day2

B* drag term: 0.000073244054 1/REarth

Two-line elements (TLE)

Creation date: Dec. 12, 2025, 10:14 a.m.

Reference frame: TEME

Reference center: EARTH

Epoch: Dec. 12, 2025, 6:46 a.m. UTC

TLE line 0: 0 COSMOS 2181

TLE line 1: 1 21902U 92012A 25346.28236571 .00000082 00000-0 73244-4 0 9996

TLE line 2: 2 21902 82.9438 85.8381 0027425 237.3071 181.2940 13.72556345690681

Live tracking on map

Real-time ground track for satellite COSMOS 2181.

In-orbit conjunctions

A list of the most updated potential collisions computed for object COSMOS 2181.

Target Orbit TCA Probability of collision Miss distance Type
CZ-6A DEB SSO 2025-11-01 05:59:29 0.0001924562 739.0 (m) DEBRIS
CZ-4C DEB SSO 2025-08-08 03:53:42 0.0001487181 96.0 (m) DEBRIS
FENGYUN 1C DEB SSO 2024-10-24 23:51:32 0.0001859474 234.0 (m) DEBRIS
FENGYUN 1C DEB SSO 2024-09-22 21:03:07 0.0006425472 272.0 (m) DEBRIS
FENGYUN 1C DEB SSO 2024-08-26 21:41:33 0.0005264357 218.0 (m) DEBRIS

Associated space launch

Civilian navigation satellite equivalent to the purely military Parus

COSMOS 2181 was lifted into orbit during the mission ‘Kosmos-3M | Tsikada 18’, on board a Kosmos-3M space rocket.

The launch took place on March 9, 1992, 10:35 p.m. from 132/1 (132L).

For more information about the launch, click the button.

Launch to space Kosmos-3M | Tsikada 18
Kosmos-3M | Tsikada 18

Agency: N/A

Status: Launch Successful

Launch date: March 9, 1992, 10:35 p.m. UTC

Rocket: Kosmos-3M

Launch pad: 132/1 (132L)

Location: Plesetsk Cosmodrome, Russian Federation

...

Latest news about this satellite

There are no fresh news available about this satellite. Check back as we update our databases every day.


Newsletter sign-up

Weekly statistics, charts and insights to help you stay on top of the space industry.